x

9439040 - Astoria, Or (asto3) Weather Station

10:30 - Fri 28th Aug 2015 All times are PDT. -7 hours from GMT.

  • Wind
    2mph, 5mph gusts
  • Sea Temp 70°f
  • Air Temp 63°f
  • Sea Pressure 1014.9mb
  • 9439040 - Astoria, Or
  • 9439040 - Astoria, Or

More Historic Weather Station data

Upgrade to MSW Pro to gain access to the past 30 days of data for over 8000 Wavebouys and Weather Stations around the globe.

Join Pro

Comparision Forecast

View Surf forecast
   
ven. 08/28 10:30 2 5 mph 1014.9mb 70f 63f
10:24 2 3 mph 1014.9mb 70f 63f
10:18 2 3 mph 1015mb 70f 63f
10:12  -  3 mph 1015mb 70f 64f
10:06 2 3 mph 1015mb 70f 63f
10:00 2 3 mph 1015.1mb 70f 63f
9:54  -  2 mph 1015.1mb 70f 63f
9:48  -  2 mph 1015.3mb 70f 63f
9:42 1 3 mph 1015.4mb 70f 62f
9:36 3 6 mph 1015.4mb 70f 62f
9:30 3 6 mph 1015.4mb 70f 62f
9:24 3 5 mph 1015.2mb 70f 62f
9:18 3 6 mph 1015.2mb 70f 62f
9:12 2 5 mph 1015.2mb 70f 62f
9:06 2 5 mph 1015.1mb 70f 62f
9:00 1 5 mph 1015.2mb 70f 62f
8:54 5 6 mph 1015.3mb 70f 62f
8:48 2 3 mph 1015.3mb 69f 62f
8:42 1 3 mph 1015.4mb 69f 62f
8:36  -  3 mph 1015.4mb 69f 62f
8:30 2
mph
1015.5mb 69f 62f
8:24 2 3 mph 1015.6mb 69f 62f
8:18 2 5 mph 1015.6mb 69f 62f
8:12 2 5 mph 1015.6mb 69f 61f
8:06 3 6 mph 1015.6mb 69f 61f
8:00 2
mph
1015.5mb 69f 61f
7:54  -  2 mph 1015.7mb 69f 61f
7:48 1 2 mph 1015.8mb 69f 61f
7:42 2
mph
1015.9mb 68f 61f
7:36 2
mph
1015.9mb 68f 60f
7:30  -  2 mph 1015.9mb 68f 61f
7:24 1 2 mph 1015.9mb 68f 61f
7:18 1 2 mph 1015.8mb 68f 60f
7:12 1 2 mph 1015.8mb 67f 60f
7:06 2 3 mph 1015.8mb 67f 60f
7:00 1 2 mph 1015.8mb 67f 61f
6:54  -  1 mph 1015.8mb 67f 61f
6:48 1 2 mph 1015.8mb 67f 61f
6:42 2 5 mph 1015.9mb 67f 61f
6:36 2 3 mph 1015.8mb 67f 61f
6:30 2 5 mph 1015.9mb 67f 61f
6:24 2 5 mph 1016mb 67f 61f
6:18 5 6 mph 1016.1mb 67f 61f
6:12 2 3 mph 1016.1mb 67f 60f
6:06 2 3 mph 1016.1mb 67f 60f
6:00 1 2 mph 1016.1mb 67f 60f
5:54 1 2 mph 1016.1mb 67f 60f
5:48 2 3 mph 1016.2mb 67f 60f
5:42 3 6 mph 1016.2mb 67f 60f
5:36 5 6 mph 1016.2mb 67f 60f
5:30 3 7 mph 1016.2mb 67f 60f
5:24 3 7 mph 1016.3mb 67f 60f
5:18 5 7 mph 1016.4mb 67f 60f
5:12 5 8 mph 1016.3mb 67f 60f
5:06 6 9 mph 1016.3mb 67f 60f
5:00 5 7 mph 1016.3mb 67f 60f
4:54 5 8 mph 1016.3mb 67f 60f
4:48 5 8 mph 1016.2mb 67f 60f
4:42 5 7 mph 1016.1mb 67f 60f
4:36 5 8 mph 1016.2mb 67f 60f
4:30 2 8 mph 1016.3mb 67f 60f
4:24 5 9 mph 1016.4mb 67f 60f
4:18 1 6 mph 1016.3mb 67f 60f
4:12 2 6 mph 1016.4mb 67f 61f
4:06 5 7 mph 1016.4mb 67f 61f
4:00 3 7 mph 1016.3mb 67f 61f
3:54 3 6 mph 1016.3mb 67f 61f
3:48 3 6 mph 1016.3mb 67f 60f
3:42 5 6 mph 1016.4mb 67f 61f
3:36 3 6 mph 1016.5mb 67f 60f
3:30 3 6 mph 1016.5mb 67f 60f
3:24 2 5 mph 1016.5mb 67f 60f
3:18 5 7 mph 1016.7mb 67f 59f
3:12 3 5 mph 1016.8mb 67f 59f
3:06 3 6 mph 1016.8mb 67f 59f
3:00 3 6 mph 1017mb 67f 59f
2:54 3 8 mph 1017mb 67f 59f
2:48 5 7 mph 1017mb 67f 59f
2:42 3 6 mph 1017mb 67f 59f
2:36 2 5 mph 1017.1mb 67f 59f
2:30 2 3 mph 1017.2mb 67f 59f
2:24 1 3 mph 1017.3mb 67f 59f
2:18 1 8 mph 1017.1mb 68f 59f
2:12 6 9 mph 1017.5mb 68f 59f
2:06 2 3 mph 1017.1mb 68f 60f
2:00 2 3 mph 1017.3mb 68f 60f
1:54 3 8 mph 1017.1mb 68f 60f
1:48 5 9 mph 1017.2mb 68f 60f
1:42 7 9 mph 1017.4mb 68f 60f
1:36 5 7 mph 1017.2mb 68f 60f
1:30 6 8 mph 1017.1mb 68f 60f
1:24 7 8 mph 1017mb 67f 60f
1:18 6 13 mph 1017.1mb 67f 60f
1:12 6 10 mph 1017mb 67f 60f
1:06 9 14 mph 1017.1mb 66f 60f
1:00 6 13 mph 1017.1mb 66f 61f
12:54 9 13 mph 1017.1mb 66f 61f
12:48 7 14 mph 1017.1mb 66f 62f
12:42 7 11 mph 1017.2mb 66f 62f
12:36 9 13 mph 1017.1mb 67f 62f
12:30 8 14 mph 1017mb 67f 62f
12:24 9 14 mph 1017.3mb 67f 62f
12:18  -  mph - - 62f
12:12  -  mph - - 62f
12:06  -  mph - - 62f
12:00 8 9 mph 1017.3mb 66f 62f
jeu. 08/27 11:54 7 8 mph 1017.2mb 67f 63f
11:48 5 8 mph 1016.8mb 67f 62f
11:42 7 10 mph 1017.1mb 68f 62f
11:36 8 10 mph 1017.2mb 68f 63f
11:30 6 8 mph 1016.4mb 68f 62f
11:24 6 9 mph 1016.7mb 68f 62f
11:18 7 9 mph 1017mb 68f 63f
11:12 8 10 mph 1017.1mb 68f 63f
11:06 7 8 mph 1017.1mb 69f 63f
11:00 7 9 mph 1016.5mb 69f 63f
10:54 8 9 mph 1017mb 69f 63f
10:48 7 9 mph 1017.1mb 69f 63f
10:42 7 8 mph 1017.2mb 69f 63f
10:36 7 8 mph 1016.9mb 69f 63f
10:30 7 10 mph 1016.9mb 69f 63f
10:24 8 10 mph 1017.3mb 70f 63f
10:18 7 9 mph 1017.4mb 70f 63f
10:12 8 10 mph 1017.5mb 70f 64f
10:06 7 10 mph 1017.3mb 70f 63f
10:00 10 11 mph 1017.4mb 70f 63f
9:54 7 9 mph 1016.9mb 70f 63f
9:48 7 8 mph 1017.3mb 70f 64f
9:42 8 11 mph 1017.1mb 70f 63f
9:36 8 11 mph 1017.4mb 70f 63f
9:30 9 11 mph 1017.5mb 70f 63f
9:24 9 13 mph 1017.5mb 70f 63f
9:18 9 13 mph 1017.4mb 70f 63f
9:12 10 14 mph 1017.4mb 70f 64f
9:06 10 14 mph 1017.2mb 70f 64f
9:00 8 10 mph 1017.1mb 70f 63f
8:54 10 14 mph 1017.2mb 70f 64f
8:48 11 14 mph 1017.2mb 70f 64f
8:42 9 10 mph 1017.1mb 70f 64f
8:36 9 14 mph 1016.7mb 70f 64f
8:30 10 11 mph 1016.6mb 70f 64f
8:24 9 10 mph 1016.7mb 70f 64f
8:18 8 10 mph 1016.4mb 70f 64f
8:12 8 10 mph 1016.3mb 70f 64f
8:06 7 10 mph 1016.4mb 69f 65f
8:00 8 10 mph 1016.5mb 69f 64f
7:54 8 10 mph 1016.5mb 69f 65f
7:48 9 11 mph 1016.4mb 69f 65f
7:42 8 9 mph 1016.4mb 69f 65f
7:36 8 11 mph 1016.7mb 69f 65f
7:30 9 11 mph 1016.7mb 69f 66f
7:24 8 9 mph 1016.5mb 69f 66f
7:18 8 11 mph 1016.5mb 69f 67f
7:12 9 11 mph 1016.5mb 69f 67f
7:06 10 11 mph 1016.5mb 69f 67f
7:00 10 11 mph 1016.4mb 69f 67f
6:54 9 10 mph 1016.4mb 69f 67f
6:48 9 11 mph 1016.5mb 69f 67f
6:42 9 11 mph 1016.5mb 69f 67f
6:36 9 11 mph 1016.6mb 69f 67f
6:30 11 13 mph 1016.7mb 69f 67f
6:24 9 11 mph 1016.6mb 69f 67f
6:18 8 10 mph 1016.5mb 69f 67f
6:12 8 9 mph 1016.5mb 69f 67f
6:06 6 8 mph 1016.4mb 69f 68f
6:00 6 8 mph 1016.5mb 69f 68f
5:54 6 8 mph 1016.4mb 69f 68f
5:48 6 7 mph 1016.4mb 69f 68f
5:42 7 9 mph 1016.4mb 69f 67f
5:36 6 7 mph 1016.4mb 69f 67f
5:30 7 8 mph 1016.5mb 69f 67f
5:24 7 8 mph 1016.6mb 69f 67f
5:18 6 7 mph 1016.6mb 69f 67f
5:12 6 7 mph 1016.6mb 69f 67f
5:06 7 8 mph 1016.7mb 69f 66f
5:00 7 9 mph 1016.8mb 69f 66f
4:54 7 9 mph 1016.8mb 68f 66f
4:48 8 9 mph 1016.8mb 67f 66f
4:42 7 10 mph 1017mb 66f 66f
4:36 8 10 mph 1017mb 66f 65f
4:30 7 9 mph 1016.9mb 66f 66f
4:24 8 10 mph 1017.1mb 67f 65f
4:18 9 10 mph 1017.2mb 67f 66f
4:12 8 11 mph 1017.2mb 67f 66f
4:06 10 13 mph 1017.2mb 67f 65f
4:00 11 14 mph 1017.3mb 67f 65f
3:54 11 14 mph 1017.5mb 66f 65f
3:48 13 14 mph 1017.6mb 66f 64f
3:42 11 13 mph 1017.6mb 66f 64f
3:36 11 13 mph 1017.6mb 65f 64f
3:30 11 13 mph 1017.6mb 65f 64f
3:24 13 14 mph 1017.7mb 65f 64f
3:18 13 16 mph 1017.8mb 66f 64f
3:12 14 16 mph 1017.8mb 67f 64f
3:06 14 15 mph 1017.8mb 67f 64f
3:00 13 14 mph 1017.9mb 68f 65f
2:54 11 13 mph 1017.9mb 68f 65f
2:48 10 11 mph 1017.9mb 68f 65f
2:42 11
mph
1018mb 68f 64f
2:36 10 11 mph 1018mb 68f 64f
2:30 9 11 mph 1018mb 68f 64f
2:24 9 10 mph 1018.1mb 68f 64f
2:18 7 8 mph 1018.1mb 68f 64f
2:12 6 8 mph 1018mb 68f 64f
2:06 7 10 mph 1018.2mb 68f 64f
2:00 8 10 mph 1018.3mb 68f 64f
1:54 9 11 mph 1018.4mb 68f 63f
1:48 10 11 mph 1018.4mb 68f 63f
1:42 9 10 mph 1018.5mb 68f 64f
1:36 10 13 mph 1018.5mb 68f 63f
1:30 11 13 mph 1018.7mb 68f 63f
1:24 11 13 mph 1018.7mb 67f 64f
1:18  -  mph 1018.8mb - -
1:12  -  mph 1018.7mb 67f 63f
1:06 10 11 mph 1018.8mb 67f 63f
1:00 9 11 mph - - -
12:54 9 10 mph - - -
12:48  -  mph - 67f 64f
12:42  -  mph - 67f 63f
12:36  -  mph - 67f 64f
12:30 6 7 mph 1018.8mb 67f 63f
12:24 6 7 mph 1018.8mb 68f 63f
12:18  -  mph 1018.8mb - 64f
12:12  -  mph 1018.8mb - 64f
12:06  -  mph 1019mb - 64f
12:00 3 5 mph - - 64f
11:54 2 5 mph - - 63f
11:48 2 5 mph - - 63f
11:42 3 5 mph - - 63f
11:36 5
mph
- - 63f
11:30  -  mph - 69f -
11:24  -  mph - 69f -
11:18 2 3 mph 1019.1mb 69f 64f
11:12  -  2 mph 1019mb 69f 65f
11:06  -  3 mph 1018.9mb 69f 64f
11:00 2
mph
1019mb 69f 63f
10:54 2 5 mph 1018.9mb 69f 63f
10:48 1 6 mph 1019mb 69f 62f
10:42 3 6 mph 1018.9mb 69f 63f
10:36 3 6 mph 1019mb 69f 63f
10:30 3 7 mph 1019mb 69f 63f
10:24 2 6 mph 1019.1mb 69f 62f
10:18 2 6 mph 1019.1mb 70f 62f
10:12 5 8 mph 1019.1mb 70f 61f
10:06 3 5 mph 1019.1mb 69f 62f
10:00  -  2 mph 1019.1mb 69f 62f
9:54 1 2 mph 1019mb 69f 62f
9:48 1 3 mph 1019.1mb 69f 62f
9:42 3 7 mph 1019.1mb 69f 61f
9:36  -  5 mph 1019.1mb 69f 62f
9:30  -  mph - - 61f
9:24  -  mph - - 61f
9:18  -  3 mph 1019.4mb 70f 61f
9:12  -  6 mph 1019.4mb 70f 61f
9:06 2 3 mph 1019.4mb 70f 60f
9:00 2 5 mph 1019.2mb 70f 60f
8:54 2 5 mph 1019.3mb 70f 60f
8:48  -  mph - 70f 60f
8:42  -  mph - 69f 59f
8:36  -  mph - 69f 59f
8:30 3 6 mph 1019.4mb 69f 59f
8:24 5 6 mph 1019.4mb 69f 59f
8:18  -  mph - - 59f
8:12  -  mph - - 59f
8:06  -  mph - - 60f
8:00 3 5 mph 1019.3mb 69f 60f
7:54 3 5 mph 1019.3mb 69f 60f
7:48 2 3 mph 1019.3mb 69f 60f
7:42 2 6 mph 1019.3mb 69f 60f
7:36 5 6 mph 1019.3mb 69f 60f
7:30 5
mph
1019.3mb 69f 60f
7:24 3 5 mph 1019.3mb 68f 60f
7:18 3
mph
1019.3mb 68f 60f
7:12 2 3 mph 1019.2mb 68f 60f
7:06 3 5 mph 1019.2mb 68f 60f
7:00 3 5 mph 1019.2mb 68f 59f
6:54 3 5 mph 1019.2mb 67f 59f
6:48 3 5 mph 1019.2mb 67f 59f
6:18  -  mph - 67f 57f
6:12  -  mph - 68f 57f
6:06  -  mph - 68f 58f
6:00  -  mph - 68f 58f
5:54  -  mph - 68f 58f
5:48  -  mph - 68f 58f
5:42  -  mph - 68f 58f
5:36  -  mph - 68f 59f
5:30  -  mph - 68f 59f
5:24  -  mph - 68f 59f
5:18  -  mph - 68f 59f
5:12  -  mph - 68f 59f
5:06  -  mph - 68f 59f
5:00  -  1 mph 1019.3mb 68f 59f
4:54  -  2 mph 1019.2mb 68f 59f
4:48  -  mph - 68f 58f
4:42  -  mph - 68f 58f
4:36  -  mph - 67f 59f
4:30  -  mph - - 59f
4:24  -  mph - - 58f
4:18 1 2 mph 1019.1mb 67f 58f
4:12 1 2 mph 1019.1mb 67f 59f
4:06 1 3 mph 1019.1mb 67f 59f
4:00  -  2 mph 1019mb 67f 59f
3:54  -  1 mph 1019mb 67f 59f
3:48  -  2 mph 1018.9mb 67f 59f
3:42 1 2 mph 1019mb 67f 59f
3:36 1 3 mph 1019mb 67f 59f
3:30 2 3 mph 1018.9mb 67f 59f
3:24 2 3 mph 1018.9mb 67f 59f
3:18 1 2 mph 1018.9mb 67f 59f
3:12 1 2 mph 1018.9mb 67f 59f
3:06 1 2 mph 1018.9mb 67f 59f
3:00 1 2 mph 1018.9mb 67f 59f
2:54 1 2 mph 1019mb 67f 58f
2:48 2
mph
1018.9mb 67f 58f
mer. 08/26 10:30 2 6 mph 1018.3mb 69f 60f
10:24 3 5 mph 1018.3mb 69f 60f
10:18 3 5 mph 1018.3mb 69f 60f
10:12 2 5 mph 1018.4mb 69f 60f
10:06 3 5 mph 1018.3mb 69f 60f
10:00 3 6 mph 1018.2mb 69f 60f
9:54 3 8 mph 1018.3mb 69f 60f
9:48 8 10 mph 1018.3mb 69f 60f
9:42 6 8 mph 1018.3mb 69f 60f
9:36 7 8 mph 1018.2mb 69f 60f
9:30 6 7 mph 1018.1mb 70f 60f
9:24 6 8 mph 1018.1mb 70f 60f
9:18 6 7 mph 1018mb 70f 60f
9:12 6
mph
1018mb 70f 60f
9:06 7
mph
1018mb 70f 60f
9:00 6 7 mph - 70f 60f
8:54 6 7 mph - 70f 60f
8:48 5 8 mph 1017.9mb 70f 61f
8:42 5 6 mph 1017.8mb 70f 61f
8:36 2 8 mph 1017.8mb 70f 61f
8:30 7 10 mph 1017.7mb 70f 61f
8:24 7 10 mph 1017.7mb 70f 61f
8:18 7 11 mph 1017.6mb 70f 61f
8:12 9 13 mph 1017.6mb 70f 61f
8:06 10 13 mph 1017.6mb 69f 61f
8:00 10 14 mph 1017.5mb 69f 61f
7:54 11 13 mph 1017.4mb 69f 61f
7:48 10 13 mph 1017.4mb 69f 61f
7:42 11 15 mph 1017.4mb 69f 62f
7:36 11 14 mph 1017.3mb 69f 62f
7:30 8 11 mph 1017.3mb 69f 62f
7:24 9 13 mph 1017.3mb 69f 62f
7:18 9 14 mph 1017.2mb 69f 62f
7:12 13 15 mph 1017.3mb 69f 62f
7:06 13 16 mph 1017.3mb 69f 62f
7:00 14 17 mph 1017.3mb 69f 61f
6:54 16 17 mph 1017.2mb 69f 61f
6:48 14 17 mph 1017.2mb 69f 62f
6:42 13 16 mph 1017.1mb 69f 63f
6:36 16 20 mph 1017.1mb 69f 62f
6:30 15 16 mph 1016.9mb 69f 63f
6:24 15 17 mph 1016.8mb 69f 64f
6:18 15 16 mph 1016.6mb 69f 64f
6:12 15 16 mph 1016.5mb 69f 65f
6:06 13 15 mph 1016.4mb 69f 65f
6:00 13 16 mph 1016.4mb 69f 65f
5:54 13 15 mph 1016.4mb 69f 65f
5:48 14 16 mph 1016.4mb 69f 65f
5:42 13 15 mph 1016.4mb 69f 65f
5:36 14 15 mph 1016.4mb 69f 65f
5:30 14 15 mph 1016.4mb 69f 65f
5:24 13 16 mph 1016.4mb 69f 65f
5:18 11 16 mph 1016.4mb 69f 65f
5:12 11 15 mph 1016.4mb 69f 65f
5:06 13 15 mph 1016.4mb 69f 65f
5:00 14 15 mph 1016.4mb 69f 65f
4:54 13 15 mph 1016.3mb 69f 65f
4:48 14 16 mph 1016.2mb 69f 64f
4:42 15 17 mph 1016.2mb 69f 65f
4:36 14 16 mph 1016.2mb 69f 64f
4:30 14 16 mph 1016.3mb 68f 65f
4:24 14 15 mph 1016.2mb 68f 65f
4:18 13 15 mph 1016.2mb 68f 65f
4:12 13 16 mph 1016.3mb 69f 65f
4:06 15 17 mph 1016.2mb 69f 65f
4:00 13 15 mph 1016.2mb 69f 65f
3:54 14 16 mph 1016.1mb 69f 66f
3:48 14 17 mph 1016.1mb 68f 66f
3:42 14 16 mph 1016.1mb 67f 66f
3:36 15 16 mph 1016mb 69f 66f
3:30 13 15 mph 1015.9mb 67f 67f
3:24 13 15 mph 1016mb 65f 66f
3:18 13 15 mph 1016mb 67f 66f
3:12 13 15 mph 1016mb 68f 66f
3:06 13 15 mph 1016mb 69f 66f
3:00 14 16 mph 1015.9mb 69f 66f
2:54 11 15 mph 1016mb 68f 66f
2:48 14 16 mph 1016mb 65f 66f
2:42 13 16 mph 1015.9mb 64f 66f
2:36 13 15 mph 1015.9mb 64f 66f
2:30 11 15 mph 1015.9mb 64f 66f
2:24 14 15 mph 1016mb 64f 65f
2:18 14 16 mph 1015.9mb 64f 64f
2:12 14 15 mph 1015.9mb 65f 64f
2:06 13 15 mph 1015.9mb 66f 64f
2:00 13 14 mph 1015.9mb 67f 65f
1:54 13 14 mph 1015.9mb 67f 65f
1:48 11 14 mph 1016mb 67f 65f
1:42 11 13 mph 1016mb 67f 64f
1:36 9 13 mph 1016mb 67f 65f
1:30 10 14 mph 1016mb 68f 65f
1:24 11 15 mph 1016.1mb 68f 65f
1:18 13 15 mph 1016.1mb 68f 64f
1:12 13 15 mph 1016.1mb 68f 64f
1:06 13 15 mph 1016.2mb 68f 64f
1:00 14 15 mph 1016.3mb 68f 64f
12:54 14 15 mph 1016.4mb 68f 64f
12:48 13 15 mph 1016.4mb 68f 64f
12:42 11 13 mph 1016.4mb 68f 64f
12:36 10 11 mph 1016.4mb 68f 65f
12:30 10 11 mph 1016.4mb 68f 65f
12:24 7 9 mph 1016.4mb 68f 66f
12:18 7 8 mph 1016.4mb 68f 66f
12:12 5 6 mph 1016.3mb 68f 66f
12:06 3 5 mph 1016.3mb 68f 66f
12:00 3 6 mph 1016.2mb 68f 66f
11:54 5 6 mph 1016.4mb 68f 66f
11:48 5 6 mph 1016.4mb 68f 65f
11:42 6
mph
1016.4mb 68f 65f
11:36 5
mph
1016.4mb 69f 64f
11:30 2 5 mph 1016.4mb 69f 64f
11:24 3 5 mph 1016.4mb 69f 64f
11:18 3 5 mph 1016.4mb 69f 64f
11:12 3 6 mph 1016.4mb 69f 64f
11:06 3 5 mph 1016.5mb 69f 64f
11:00 5 6 mph 1016.5mb 69f 63f
10:54 5 6 mph 1016.5mb 69f 63f
10:48 5 6 mph 1016.5mb 69f 63f
10:42 5 6 mph 1016.5mb 69f 64f
10:36 3 6 mph 1016.5mb 69f 64f
10:30 3 5 mph 1016.5mb 69f 64f
10:24  -  2 mph 1016.6mb 69f 66f
10:18 2 5 mph 1016.6mb 69f 64f
10:12 1 5 mph 1016.5mb 69f 64f
10:06 5 6 mph 1016.5mb 69f 63f
10:00 2 5 mph 1016.4mb 69f 63f
9:54 1 5 mph 1016.4mb 69f 63f
9:48 3 6 mph 1016.5mb 69f 62f
9:42 2 6 mph 1016.5mb 69f 62f
9:36 3 7 mph 1016.5mb 69f 62f
9:30 3 8 mph 1016.6mb 69f 61f
9:24 2 3 mph 1016.6mb 69f 62f
9:18 3 9 mph 1016.5mb 69f 61f
9:12 3 8 mph 1016.5mb 69f 61f
9:06 3 7 mph 1016.5mb 69f 61f
9:00 3 7 mph 1016.6mb 69f 61f
8:54 3 7 mph 1016.6mb 69f 60f
8:48 2 7 mph 1016.6mb 69f 61f
8:42 2 7 mph 1016.7mb 69f 60f
8:36 3 7 mph 1016.6mb 69f 60f
8:30 5 8 mph 1016.6mb 69f 60f
8:24 5 7 mph 1016.5mb 68f 59f
8:18 3 6 mph 1016.6mb 68f 59f
8:12 3 8 mph 1016.6mb 68f 59f
8:06 6 7 mph 1016.6mb 68f 59f
8:00 5 7 mph 1016.6mb 68f 59f
7:54 2 3 mph 1016.7mb 68f 59f
7:48  -  2 mph 1016.6mb 68f 59f
7:42 2
mph
1016.6mb 68f 58f
7:36  -  2 mph 1016.6mb 68f 58f
7:30 2 3 mph 1016.6mb 68f 58f
7:24 1 2 mph 1016.5mb 68f 58f
7:18 2
mph
1016.4mb 68f 58f
7:12 2
mph
1016.3mb 67f 58f
7:06 1 2 mph 1016.3mb 67f 57f
7:00 1 2 mph 1016.3mb 67f 57f
6:54 2 3 mph 1016.3mb 67f 57f
6:48 3 6 mph 1016.3mb 67f 57f
6:42 3 6 mph 1016.3mb 67f 57f
6:36 5 6 mph 1016.2mb 67f 57f
6:30 3 6 mph 1016.2mb 67f 57f
6:24 5 6 mph 1016.2mb 67f 57f
6:18 5 6 mph 1016.1mb 67f 58f
6:12 5 6 mph 1016.1mb 68f 58f
6:06 3
mph
1016.1mb 68f 58f
6:00 1 3 mph 1016.1mb 68f 58f
5:54 2
mph
1016.1mb 68f 58f
5:48  -  2 mph 1016mb 68f 58f
5:42 1 2 mph 1015.9mb 68f 58f
5:36 2 5 mph 1015.9mb 68f 58f
5:30 3 6 mph 1015.9mb 68f 58f
5:24 3
mph
1015.9mb 68f 58f
5:18 1 2 mph 1015.9mb 68f 58f
5:12 1 3 mph 1015.9mb 68f 58f
5:06  -  3 mph 1015.9mb 68f 58f
5:00 1 3 mph 1015.8mb 68f 59f
4:54  -  3 mph 1015.9mb 68f 59f
4:48  -  3 mph 1015.9mb 68f 59f
4:42 2 6 mph 1016mb 68f 59f
4:36 2 3 mph 1016mb 68f 59f
4:30 2 3 mph 1016.1mb 68f 59f
4:24 2 3 mph 1016.1mb 68f 60f
4:18 2 3 mph 1016mb 68f 60f
4:12 2 6 mph 1016mb 68f 60f
4:06 6
mph
1016.1mb 68f 60f
4:00 3 6 mph 1016.1mb 68f 60f
3:54 3 7 mph 1016.1mb 68f 60f
3:48 2 5 mph 1016.1mb 68f 60f
3:42 3 7 mph 1016mb 68f 60f
3:36 6
mph
1015.9mb 68f 60f
3:30 5 8 mph 1015.9mb 68f 60f
3:24 7 8 mph 1015.8mb 68f 60f
3:18 3 6 mph 1015.7mb 68f 61f
3:12 1 2 mph 1015.7mb 68f 60f
3:06 2 5 mph 1015.7mb 68f 60f
3:00 3
mph
1015.7mb 68f 60f
2:54 1 2 mph 1015.7mb 68f 60f
2:48 2 6 mph 1015.7mb 68f 59f
2:42 3 5 mph 1015.7mb 68f 59f
2:36 3 5 mph 1015.7mb 68f 60f
2:30 3 5 mph 1015.6mb 68f 60f
2:24 2 3 mph 1015.7mb 68f 60f
2:18 2
mph
1015.7mb 68f 60f
2:12 2
mph
1015.7mb 68f 60f
2:06 2 3 mph 1015.8mb 68f 60f
2:00 2 3 mph 1015.7mb 68f 60f
1:54 2 3 mph 1015.7mb 68f 60f
1:48 2 3 mph 1015.7mb 68f 61f
1:42 2
mph
1015.7mb 68f 61f
1:36 2
mph
1015.7mb 67f 61f
1:30 1
mph
1015.7mb 67f 61f
1:24  -  2 mph 1015.7mb 68f 61f
1:18  -  1 mph 1015.8mb 68f 61f
1:12  -  2 mph 1015.7mb 68f 61f
1:06 1 2 mph 1015.7mb 68f 61f
1:00 1 3 mph 1015.7mb 68f 61f
12:54 2 3 mph 1015.7mb 68f 61f
12:48 3
mph
1015.7mb 68f 61f
12:42 2 3 mph 1015.6mb 68f 61f
12:36 3 5 mph 1015.7mb 68f 61f
12:30 3 6 mph 1015.8mb 68f 61f
12:24 3 6 mph 1015.7mb 68f 62f
12:18 5 7 mph 1015.7mb 68f 62f
12:12 5 6 mph 1015.7mb 68f 62f
12:06 6 8 mph 1015.7mb 67f 62f
12:00 7 8 mph 1015.7mb 67f 62f
mar. 08/25 11:54 3 6 mph 1015.7mb 66f 63f
11:48 3 5 mph - 66f 63f
11:42 3 8 mph - 66f 63f
11:36 8 10 mph - 67f 64f
11:30 9 11 mph 1015.8mb 66f 64f
11:24 6 9 mph 1015.9mb 67f 64f
11:18 6 13 mph 1015.9mb 67f 64f
11:12 10 14 mph 1015.9mb 67f 64f
11:06 9 13 mph 1016mb 66f 64f
11:00 10 11 mph 1016mb 67f 64f
10:54 9 13 mph 1016mb 67f 65f
10:48 10 11 mph 1016mb 67f 65f
10:42 9 10 mph 1016mb 68f 65f
10:36 7 9 mph 1016mb 68f 66f
10:30 6 10 mph 1016.1mb 68f 65f
10:24 7 10 mph 1016.2mb 68f 66f
10:18 7 8 mph 1016.2mb 68f 66f
10:12 2 6 mph 1016.2mb 68f 65f
10:06 3 6 mph 1016.2mb 68f 65f
10:00 5 8 mph 1016.2mb 68f 65f
9:54 7 10 mph 1016.3mb 69f 66f
9:48 8 10 mph 1016.3mb 69f 66f
9:42 7 8 mph 1016.2mb 70f 66f
9:36 5 7 mph 1016.2mb 70f 66f
9:30 2 6 mph 1016.3mb 70f 65f
9:24 2 6 mph 1016.3mb 70f 66f
9:18 5 7 mph 1016.4mb 70f 66f
9:12 6 7 mph 1016.3mb 70f 66f
9:06 3 5 mph 1016.3mb 70f 66f
9:00 1 5 mph 1016.2mb 70f 67f
8:54 2 5 mph 1016.1mb 70f 67f
8:48 2 6 mph 1016.1mb 70f 67f
8:42 2 5 mph 1016mb 70f 67f
8:36 5 6 mph 1016mb 70f 67f
8:30 6 7 mph 1015.9mb 70f 67f
8:24 7 8 mph 1015.8mb 70f 67f
8:18 7 8 mph 1015.8mb 70f 67f
8:12 5 7 mph 1015.8mb 70f 67f
8:06 7 9 mph 1015.7mb 70f 67f
8:00 9 10 mph 1015.8mb 70f 67f
7:54 8 13 mph 1015.7mb 70f 68f
7:48 8 13 mph 1015.7mb 70f 68f
7:42 11 13 mph 1015.7mb 70f 68f
7:36 10 13 mph 1015.7mb 70f 68f
7:30 10 14 mph 1015.7mb 69f 69f
7:24 10 11 mph 1015.7mb 69f 69f
7:18 8 11 mph 1015.8mb 69f 70f
7:12 10 13 mph 1015.9mb 69f 69f
7:06 9 11 mph 1015.9mb 69f 69f
7:00 8 13 mph 1015.8mb 69f 70f
6:54 9 13 mph 1015.8mb 69f 69f
6:48 5 7 mph 1015.8mb 69f 71f
6:42 5 6 mph 1015.8mb 69f 71f
6:36 5 6 mph 1015.8mb 69f 71f
6:30 5 6 mph 1015.9mb 69f 71f
6:24 6 7 mph 1015.9mb 68f 71f
6:18 6 8 mph 1015.9mb 68f 71f
6:12 8
mph
1015.9mb 68f 71f
6:06 7
mph
1015.9mb 68f 71f
6:00 6
mph
1015.9mb 67f 71f
5:54 6 7 mph 1015.9mb 67f 71f
5:48 7 8 mph 1015.9mb 68f 70f
5:42 7 8 mph 1016mb 68f 71f
5:36 6 8 mph 1016mb 69f 70f
5:30 6 7 mph 1016mb 69f 71f
5:24 8
mph
1016.2mb 69f 70f
5:18 7 8 mph 1016.3mb 69f 70f
5:12 7
mph
1016.3mb 69f 70f
5:06 7 8 mph 1016.3mb 69f 70f
5:00 6 7 mph 1016.3mb 69f 71f
4:54 5 6 mph 1016.3mb 68f 71f
4:48 6 9 mph 1016.3mb 68f 71f
4:42 8 9 mph 1016.3mb 68f 71f
4:36 6 10 mph 1016.3mb 68f 71f
4:30 10 13 mph 1016.3mb 68f 70f
4:24 10 13 mph 1016.3mb 69f 70f
4:18 11 14 mph 1016.4mb 69f 70f
4:12 11 14 mph 1016.4mb 69f 69f
4:06 13 14 mph 1016.5mb 69f 69f
4:00 11 14 mph 1016.5mb 69f 69f
3:54 9 17 mph 1016.6mb 69f 69f
3:48 14 18 mph 1016.6mb 69f 68f
3:42 15 20 mph 1016.6mb 69f 68f
3:36 16 17 mph 1016.7mb 69f 67f
3:30 15 17 mph 1016.8mb 69f 67f
3:24 14 17 mph 1016.9mb 69f 67f
3:18 15 17 mph 1016.9mb 69f 67f
3:12 14 18 mph 1017mb 69f 66f
3:06 13 16 mph 1017.1mb 69f 66f
3:00 14 17 mph 1017.1mb 69f 66f
2:54 14 17 mph 1017.2mb 69f 66f
2:48 14 16 mph 1017.3mb 69f 65f
2:42 14 16 mph 1017.3mb 66f 65f
2:36 13 15 mph 1017.4mb 66f 65f
2:30 14 15 mph 1017.5mb 68f 65f
2:24 13 15 mph 1017.6mb 66f 65f
2:18 13 14 mph 1017.7mb 65f 64f
2:12 14 15 mph 1017.7mb 64f 64f
2:06 13 15 mph 1017.8mb 65f 65f
2:00 14 15 mph 1017.8mb 66f 64f
1:54 11 14 mph 1017.8mb 67f 65f
1:48 10 14 mph 1017.9mb 66f 65f
1:42 11 14 mph 1018mb 67f 65f
1:36 10 11 mph 1018mb 67f 65f
1:30 9 11 mph 1018.1mb 67f 65f
1:24 9 11 mph 1018mb 67f 65f
1:18 8 9 mph 1018.1mb 66f 65f
1:12 7 8 mph 1018.1mb 66f 64f
1:06 7 8 mph 1018.2mb 66f 64f
1:00 6 8 mph 1018.2mb 66f 64f
12:54 6 7 mph 1018.3mb 66f 64f
12:48 5 7 mph 1018.4mb 66f 64f
12:42 5 7 mph 1018.4mb 66f 63f
12:36 5 7 mph 1018.5mb 67f 63f
12:30 5 6 mph 1018.5mb 67f 63f
12:24 5 6 mph 1018.6mb 67f 63f
12:18 3 6 mph 1018.6mb 67f 63f
12:12 3 6 mph 1018.7mb 67f 63f
12:06 3 5 mph 1018.8mb 67f 62f
12:00 3 5 mph 1018.8mb 67f 62f
11:54 3 6 mph 1018.9mb 67f 62f
11:48 2 3 mph 1019mb 68f 62f
11:42 3 5 mph 1019mb 68f 61f
11:36 2 6 mph 1019mb 68f 61f
11:30 5 6 mph 1019mb 68f 61f
11:24 3 5 mph 1019mb 68f 61f
11:18 2 5 mph 1019mb 68f 61f
11:12 2 3 mph 1019mb 68f 61f
11:06 3 5 mph 1019.1mb 68f 61f
11:00 1 2 mph 1019.1mb 68f 61f
10:54 2 3 mph 1019.1mb 68f 61f
10:48 2 3 mph 1019.1mb 68f 61f
10:42 1 2 mph 1019.1mb 68f 61f
10:36 2 5 mph 1019.1mb 68f 60f
10:30 2 3 mph 1019.1mb 69f 60f
10:24 2 5 mph 1019.2mb 69f 59f
10:18 2 5 mph 1019.2mb 69f 59f
10:12 3 5 mph 1019.2mb 69f 59f
10:06 3 6 mph 1019.3mb 69f 59f
10:00 2 6 mph 1019.3mb 69f 60f
9:54 5 6 mph 1019.4mb 69f 59f
9:48 5 6 mph 1019.4mb 69f 59f
9:42 2 3 mph 1019.5mb 69f 59f
9:36  -  2 mph 1019.5mb 69f 59f
9:30 2 5 mph 1019.6mb 69f 58f
9:24 3 6 mph 1019.6mb 69f 58f
9:18 3 5 mph 1019.6mb 69f 58f
9:12 2 5 mph 1019.6mb 69f 58f
9:06 2 6 mph 1019.7mb 69f 58f
9:00 2 5 mph 1019.7mb 69f 58f
8:54  -  3 mph 1019.7mb 69f 58f
8:48 3 5 mph 1019.7mb 69f 57f
8:42 5 6 mph 1019.6mb 69f 57f